Location: Newark
(39.6867°N, 100.6772°W)
Time: 05:03:53
(UTC+00:00)

Vanguard 1 Rocket - Visible Passes

Search period start: 23 October 2019 00:00
Search period end: 02 November 2019 00:00
Orbit: 650 x 4226 km, 34.3° (Epoch: 20 October)

Date Brightness Start Highest point End Pass type
(mag) Time Alt. Az. Time Alt. Az. Time Alt. Az.
23 Oct 11.9 01:07:47 10° W 01:21:51 18° SW 01:34:27 10° SSW visible
23 Oct 11.8 23:49:23 10° W 00:08:55 30° SW 00:27:00 10° S visible
25 Oct 12.1 01:14:39 10° WSW 01:23:21 13° WSW 01:31:37 10° SW visible
25 Oct 12.0 23:53:19 10° W 00:10:29 24° SW 00:27:03 10° S visible
27 Oct 12.2 23:58:13 10° W 00:12:08 18° SW 00:25:58 10° SSW visible
30 Oct 12.4 00:05:31 10° WSW 00:13:54 13° SW 00:22:22 10° SSW visible
31 Oct 10.4 11:54:23 10° SE 11:56:24 11° SE 11:58:42 10° ESE visible
